Volver al catálogo

IRIDIUM 33 DEB

ActivoPO
NORAD 35616·DEBRIS·🇺🇸 United States

Lanzado Sep 14, 1997 desde Baikonur Cosmodrome

Loading…

Próximos Pases (próximas 24 horas)

TLE

ActualizadoSource: Space-Track

Época: Sep 14, 2026, 07:35 UTC

1 35616U 97051QN  26257.31648289  .00009403  00000-0  10041-2 0  9990
2 35616  86.3526 219.1366 0004887 312.2310  47.8500 14.88699812916668

Sigue IRIDIUM 33 DEB en tiempo real con AllMySat

Download on the App Store